Time,TemperatureF,DewpointF,PressureIn,WindDirection,WindDirectionDegrees,WindSpeedMPH,WindSpeedGustMPH,Humidity,HourlyPrecipIn,Conditions,Clouds,dailyrainin,SoftwareType,DateUTC
2013-05-18 00:03:00,52.3,37.0,30.21,NNE,14,0.0,-999.0,56,-99.99,,,0.00,weatherlink.com 1.10,2013-05-18 04:03:00,
2013-05-18 00:18:00,51.6,38.0,30.21,NNE,14,0.0,-999.0,60,-99.99,,,0.00,weatherlink.com 1.10,2013-05-18 04:18:00,
2013-05-18 00:33:00,51.2,38.0,30.21,NNE,14,0.0,-999.0,61,-99.99,,,0.00,weatherlink.com 1.10,2013-05-18 04:33:00,
2013-05-18 00:48:00,51.3,38.0,30.21,NNE,14,0.0,-999.0,60,-99.99,,,0.00,weatherlink.com 1.10,2013-05-18 04:48:00,
2013-05-18 01:03:00,51.2,38.0,30.22,NNE,14,0.0,-999.0,60,-99.99,,,0.00,weatherlink.com 1.10,2013-05-18 05:03:00,
2013-05-18 01:18:00,51.0,37.0,30.22,NNE,14,0.0,-999.0,60,-99.99,,,0.00,weatherlink.com 1.10,2013-05-18 05:18:00,
2013-05-18 01:33:00,50.9,38.0,30.22,NNE,14,0.0,-999.0,61,-99.99,,,0.00,weatherlink.com 1.10,2013-05-18 05:33:00,
2013-05-18 01:48:00,50.3,38.0,30.22,NNE,14,0.0,-999.0,62,-99.99,,,0.00,weatherlink.com 1.10,2013-05-18 05:48:00,
2013-05-18 02:03:00,50.1,37.0,30.22,NNE,14,0.0,-999.0,62,-99.99,,,0.00,weatherlink.com 1.10,2013-05-18 06:03:00,
2013-05-18 02:18:00,50.0,38.0,30.22,NNE,14,0.0,-999.0,63,-99.99,,,0.00,weatherlink.com 1.10,2013-05-18 06:18:00,
2013-05-18 02:33:00,49.6,38.0,30.22,NNE,14,0.0,-999.0,65,-99.99,,,0.00,weatherlink.com 1.10,2013-05-18 06:33:00,
2013-05-18 02:48:00,49.0,38.0,30.22,NNE,14,0.0,-999.0,66,-99.99,,,0.00,weatherlink.com 1.10,2013-05-18 06:48:00,
2013-05-18 03:03:00,48.5,39.0,30.22,NNE,14,0.0,-999.0,69,-99.99,,,0.00,weatherlink.com 1.10,2013-05-18 07:03:00,
2013-05-18 03:18:00,47.9,39.0,30.22,NNE,14,0.0,-999.0,71,-99.99,,,0.00,weatherlink.com 1.10,2013-05-18 07:18:00,
2013-05-18 03:33:00,47.1,39.0,30.23,NNE,14,0.0,-999.0,73,-99.99,,,0.00,weatherlink.com 1.10,2013-05-18 07:33:00,
2013-05-18 03:48:00,46.4,39.0,30.23,NNE,14,0.0,-999.0,74,-99.99,,,0.00,weatherlink.com 1.10,2013-05-18 07:48:00,
2013-05-18 04:03:00,45.9,39.0,30.24,NNE,14,0.0,-999.0,76,-99.99,,,0.00,weatherlink.com 1.10,2013-05-18 08:03:00,
2013-05-18 04:18:00,45.4,39.0,30.24,NNE,14,0.0,-999.0,77,-99.99,,,0.00,weatherlink.com 1.10,2013-05-18 08:18:00,
2013-05-18 04:33:00,45.3,39.0,30.24,NNE,14,0.0,-999.0,78,-99.99,,,0.00,weatherlink.com 1.10,2013-05-18 08:33:00,
2013-05-18 04:48:00,45.4,39.0,30.24,NNE,14,0.0,-999.0,77,-99.99,,,0.00,weatherlink.com 1.10,2013-05-18 08:48:00,
2013-05-18 05:03:00,45.1,38.0,30.25,NNE,14,0.0,-999.0,77,-99.99,,,0.00,weatherlink.com 1.10,2013-05-18 09:03:00,
2013-05-18 05:18:00,45.0,38.0,30.25,NNE,14,0.0,-999.0,77,-99.99,,,0.00,weatherlink.com 1.10,2013-05-18 09:18:00,
2013-05-18 05:33:00,45.2,38.0,30.26,NNE,14,0.0,-999.0,77,-99.99,,,0.00,weatherlink.com 1.10,2013-05-18 09:33:00,
2013-05-18 05:48:00,45.0,38.0,30.27,NNE,14,0.0,-999.0,77,-99.99,,,0.00,weatherlink.com 1.10,2013-05-18 09:48:00,
2013-05-18 06:03:00,44.9,38.0,30.27,NNE,14,0.0,-999.0,78,-99.99,,,0.00,weatherlink.com 1.10,2013-05-18 10:03:00,
2013-05-18 06:18:00,45.0,39.0,30.27,NNE,14,0.0,-999.0,78,-99.99,,,0.00,weatherlink.com 1.10,2013-05-18 10:18:00,
2013-05-18 06:33:00,45.0,39.0,30.28,NNE,14,0.0,-999.0,78,-99.99,,,0.00,weatherlink.com 1.10,2013-05-18 10:33:00,
2013-05-18 06:48:00,45.4,39.0,30.28,NNE,14,0.0,-999.0,78,-99.99,,,0.00,weatherlink.com 1.10,2013-05-18 10:48:00,
2013-05-18 07:03:00,46.2,39.0,30.29,NNE,14,0.0,-999.0,76,-99.99,,,0.00,weatherlink.com 1.10,2013-05-18 11:03:00,
2013-05-18 07:18:00,46.7,40.0,30.29,NNE,14,0.0,-999.0,76,-99.99,,,0.00,weatherlink.com 1.10,2013-05-18 11:18:00,
2013-05-18 07:33:00,48.1,40.0,30.29,NNE,14,0.0,-999.0,74,-99.99,,,0.00,weatherlink.com 1.10,2013-05-18 11:33:00,
2013-05-18 07:48:00,49.9,41.0,30.30,NNE,14,0.0,-999.0,72,-99.99,,,0.00,weatherlink.com 1.10,2013-05-18 11:48:00,
2013-05-18 08:03:00,51.5,42.0,30.30,NW,316,0.0,-999.0,70,-99.99,,,0.00,weatherlink.com 1.10,2013-05-18 12:03:00,
2013-05-18 08:18:00,53.6,43.0,30.30,NW,324,0.0,-999.0,67,-99.99,,,0.00,weatherlink.com 1.10,2013-05-18 12:18:00,
2013-05-18 08:33:00,55.6,44.0,30.31,North,349,0.0,-999.0,66,-99.99,,,0.00,weatherlink.com 1.10,2013-05-18 12:33:00,
2013-05-18 08:48:00,57.5,44.0,30.31,NNE,12,0.0,-999.0,61,-99.99,,,0.00,weatherlink.com 1.10,2013-05-18 12:48:00,
2013-05-18 09:03:00,59.0,45.0,30.31,NNE,12,0.0,-999.0,61,-99.99,,,0.00,weatherlink.com 1.10,2013-05-18 13:03:00,
2013-05-18 09:18:00,60.7,46.0,30.31,NNE,12,0.0,-999.0,59,-99.99,,,0.00,weatherlink.com 1.10,2013-05-18 13:18:00,
2013-05-18 09:33:00,61.8,46.0,30.31,NNE,12,0.0,-999.0,56,-99.99,,,0.00,weatherlink.com 1.10,2013-05-18 13:33:00,
2013-05-18 09:48:00,62.5,46.0,30.31,WNW,287,0.0,-999.0,55,-99.99,,,0.00,weatherlink.com 1.10,2013-05-18 13:48:00,
2013-05-18 10:03:00,63.7,46.0,30.31,WNW,288,0.0,-999.0,53,-99.99,,,0.00,weatherlink.com 1.10,2013-05-18 14:03:00,
2013-05-18 10:18:00,64.0,48.0,30.31,WNW,289,0.0,-999.0,56,-99.99,,,0.00,weatherlink.com 1.10,2013-05-18 14:18:00,
2013-05-18 10:33:00,64.9,47.0,30.30,WNW,293,0.0,-999.0,53,-99.99,,,0.00,weatherlink.com 1.10,2013-05-18 14:33:00,
2013-05-18 10:48:00,66.1,44.0,30.30,WNW,283,0.0,-999.0,45,-99.99,,,0.00,weatherlink.com 1.10,2013-05-18 14:48:00,
2013-05-18 11:03:00,67.0,45.0,30.30,NW,318,0.0,-999.0,46,-99.99,,,0.00,weatherlink.com 1.10,2013-05-18 15:03:00,
2013-05-18 11:18:00,67.7,47.0,30.30,West,271,0.0,-999.0,47,-99.99,,,0.00,weatherlink.com 1.10,2013-05-18 15:18:00,
2013-05-18 11:33:00,67.9,48.0,30.30,West,271,0.0,-999.0,50,-99.99,,,0.00,weatherlink.com 1.10,2013-05-18 15:33:00,
2013-05-18 11:48:00,68.3,47.0,30.30,SSW,193,0.0,-999.0,46,-99.99,,,0.00,weatherlink.com 1.10,2013-05-18 15:48:00,
2013-05-18 12:03:00,69.0,47.0,30.29,WSW,249,0.0,-999.0,45,-99.99,,,0.00,weatherlink.com 1.10,2013-05-18 16:03:00,
2013-05-18 12:18:00,69.1,48.0,30.29,SSW,213,0.0,-999.0,47,-99.99,,,0.00,weatherlink.com 1.10,2013-05-18 16:18:00,
2013-05-18 12:33:00,69.3,46.0,30.28,SW,216,0.0,-999.0,44,-99.99,,,0.00,weatherlink.com 1.10,2013-05-18 16:33:00,
2013-05-18 12:48:00,70.4,47.0,30.27,WNW,303,1.0,-999.0,43,-99.99,,,0.00,weatherlink.com 1.10,2013-05-18 16:48:00,
2013-05-18 13:03:00,71.5,46.0,30.27,WSW,258,1.0,-999.0,41,-99.99,,,0.00,weatherlink.com 1.10,2013-05-18 17:03:00,
2013-05-18 13:18:00,71.2,47.0,30.27,SSW,207,0.0,-999.0,42,-99.99,,,0.00,weatherlink.com 1.10,2013-05-18 17:18:00,
2013-05-18 13:33:00,70.4,47.0,30.27,WSW,258,0.0,-999.0,43,-99.99,,,0.00,weatherlink.com 1.10,2013-05-18 17:33:00,
2013-05-18 13:48:00,70.1,47.0,30.27,SSW,210,0.0,-999.0,44,-99.99,,,0.00,weatherlink.com 1.10,2013-05-18 17:48:00,
2013-05-18 14:03:00,69.1,46.0,30.27,SSW,209,4.0,-999.0,43,-99.99,,,0.00,weatherlink.com 1.10,2013-05-18 18:03:00,
2013-05-18 14:18:00,68.8,46.0,30.26,SSW,204,0.0,-999.0,44,-99.99,,,0.00,weatherlink.com 1.10,2013-05-18 18:18:00,
2013-05-18 14:33:00,68.5,45.0,30.26,West,261,0.0,-999.0,43,-99.99,,,0.00,weatherlink.com 1.10,2013-05-18 18:33:00,
2013-05-18 14:48:00,67.7,47.0,30.26,SSE,163,0.0,-999.0,47,-99.99,,,0.00,weatherlink.com 1.10,2013-05-18 18:48:00,
2013-05-18 15:03:00,67.1,47.0,30.26,SSW,213,0.0,-999.0,48,-99.99,,,0.00,weatherlink.com 1.10,2013-05-18 19:03:00,
2013-05-18 15:18:00,66.6,47.0,30.26,SE,136,0.0,-999.0,50,-99.99,,,0.00,weatherlink.com 1.10,2013-05-18 19:18:00,
2013-05-18 15:33:00,65.7,47.0,30.26,WSW,242,1.0,-999.0,52,-99.99,,,0.00,weatherlink.com 1.10,2013-05-18 19:33:00,
2013-05-18 15:48:00,65.0,47.0,30.26,WSW,248,0.0,-999.0,52,-99.99,,,0.00,weatherlink.com 1.10,2013-05-18 19:48:00,
2013-05-18 16:03:00,64.5,47.0,30.27,SW,220,0.0,-999.0,53,-99.99,,,0.00,weatherlink.com 1.10,2013-05-18 20:03:00,
2013-05-18 16:18:00,64.5,48.0,30.27,SSW,195,0.0,-999.0,55,-99.99,,,0.00,weatherlink.com 1.10,2013-05-18 20:18:00,
2013-05-18 16:33:00,64.1,47.0,30.27,WSW,241,4.0,-999.0,54,-99.99,,,0.00,weatherlink.com 1.10,2013-05-18 20:33:00,
2013-05-18 16:48:00,63.5,47.0,30.27,SW,230,0.0,-999.0,55,-99.99,,,0.00,weatherlink.com 1.10,2013-05-18 20:48:00,
2013-05-18 17:03:00,63.0,46.0,30.27,WSW,251,5.0,-999.0,54,-99.99,,,0.00,weatherlink.com 1.10,2013-05-18 21:03:00,
2013-05-18 17:18:00,62.6,46.0,30.28,WSW,251,0.0,-999.0,55,-99.99,,,0.00,weatherlink.com 1.10,2013-05-18 21:18:00,
2013-05-18 17:33:00,62.3,45.0,30.28,WSW,247,0.0,-999.0,54,-99.99,,,0.00,weatherlink.com 1.10,2013-05-18 21:33:00,
2013-05-18 17:48:00,61.7,45.0,30.28,SW,224,0.0,-999.0,54,-99.99,,,0.00,weatherlink.com 1.10,2013-05-18 21:48:00,
2013-05-18 18:03:00,61.0,45.0,30.28,WSW,253,0.0,-999.0,56,-99.99,,,0.00,weatherlink.com 1.10,2013-05-18 22:03:00,
2013-05-18 18:18:00,60.4,46.0,30.29,NE,39,0.0,-999.0,59,-99.99,,,0.00,weatherlink.com 1.10,2013-05-18 22:18:00,
2013-05-18 18:33:00,59.9,45.0,30.29,SW,220,0.0,-999.0,59,-99.99,,,0.00,weatherlink.com 1.10,2013-05-18 22:33:00,
2013-05-18 18:48:00,59.8,46.0,30.29,SW,235,6.0,-999.0,60,-99.99,,,0.00,weatherlink.com 1.10,2013-05-18 22:48:00,
2013-05-18 19:03:00,59.5,46.0,30.29,West,266,0.0,-999.0,62,-99.99,,,0.00,weatherlink.com 1.10,2013-05-18 23:03:00,
2013-05-18 19:18:00,59.0,46.0,30.29,WSW,253,0.0,-999.0,63,-99.99,,,0.00,weatherlink.com 1.10,2013-05-18 23:18:00,
2013-05-18 19:33:00,58.4,47.0,30.30,SSW,210,0.0,-999.0,66,-99.99,,,0.00,weatherlink.com 1.10,2013-05-18 23:33:00,
2013-05-18 19:48:00,57.6,47.0,30.30,SSW,204,0.0,-999.0,68,-99.99,,,0.00,weatherlink.com 1.10,2013-05-18 23:48:00,
2013-05-18 20:03:00,56.7,47.0,30.30,WSW,241,0.0,-999.0,70,-99.99,,,0.00,weatherlink.com 1.10,2013-05-19 00:03:00,
2013-05-18 20:18:00,55.9,46.0,30.30,SW,231,0.0,-999.0,70,-99.99,,,0.00,weatherlink.com 1.10,2013-05-19 00:18:00,
2013-05-18 20:33:00,55.2,46.0,30.30,SSW,200,0.0,-999.0,72,-99.99,,,0.00,weatherlink.com 1.10,2013-05-19 00:33:00,
2013-05-18 20:48:00,54.4,46.0,30.29,SSW,199,0.0,-999.0,73,-99.99,,,0.00,weatherlink.com 1.10,2013-05-19 00:48:00,
2013-05-18 21:03:00,53.9,46.0,30.30,SSW,199,0.0,-999.0,74,-99.99,,,0.00,weatherlink.com 1.10,2013-05-19 01:03:00,
2013-05-18 21:18:00,53.2,45.0,30.30,SSW,200,0.0,-999.0,75,-99.99,,,0.00,weatherlink.com 1.10,2013-05-19 01:18:00,
2013-05-18 21:33:00,52.7,46.0,30.30,SSW,200,0.0,-999.0,77,-99.99,,,0.00,weatherlink.com 1.10,2013-05-19 01:33:00,
2013-05-18 21:48:00,52.4,46.0,30.30,SSW,200,0.0,-999.0,78,-99.99,,,0.00,weatherlink.com 1.10,2013-05-19 01:48:00,
2013-05-18 22:03:00,51.6,45.0,30.31,SSW,199,0.0,-999.0,79,-99.99,,,0.00,weatherlink.com 1.10,2013-05-19 02:03:00,
2013-05-18 22:18:00,50.9,45.0,30.31,SSW,199,0.0,-999.0,81,-99.99,,,0.00,weatherlink.com 1.10,2013-05-19 02:18:00,
2013-05-18 22:33:00,51.0,46.0,30.30,SSW,200,0.0,-999.0,83,-99.99,,,0.00,weatherlink.com 1.10,2013-05-19 02:33:00,
2013-05-18 22:48:00,51.5,47.0,30.30,SSW,200,0.0,-999.0,85,-99.99,,,0.00,weatherlink.com 1.10,2013-05-19 02:48:00,
2013-05-18 23:03:00,52.1,48.0,30.30,SSW,201,0.0,-999.0,87,-99.99,,,0.00,weatherlink.com 1.10,2013-05-19 03:03:00,
2013-05-18 23:18:00,52.3,49.0,30.29,SSW,205,0.0,-999.0,87,-99.99,,,0.00,weatherlink.com 1.10,2013-05-19 03:18:00,
2013-05-18 23:33:00,52.3,49.0,30.30,SW,225,0.0,-999.0,87,-99.99,,,0.00,weatherlink.com 1.10,2013-05-19 03:33:00,
2013-05-18 23:48:00,52.1,49.0,30.30,SW,224,0.0,-999.0,88,-99.99,,,0.00,weatherlink.com 1.10,2013-05-19 03:48:00,